Time,TemperatureF,DewpointF,PressureIn,WindDirection,WindDirectionDegrees,WindSpeedMPH,WindSpeedGustMPH,Humidity,HourlyPrecipIn,Conditions,Clouds,dailyrainin,SoftwareType,DateUTC
2013-01-16 00:03:00,21.6,14.6,29.83,WSW,257,3.0,5.0,74,0.00,,SKC,0.00,VWS V14.01,2013-01-16 06:03:00,
2013-01-16 00:08:00,21.5,14.5,29.83,SW,219,2.0,4.0,74,0.00,,SKC,0.00,VWS V14.01,2013-01-16 06:08:00,
2013-01-16 00:13:00,21.3,14.6,29.83,South,169,1.0,2.0,75,0.00,,SKC,0.00,VWS V14.01,2013-01-16 06:13:00,
2013-01-16 00:18:00,21.1,14.4,29.83,South,179,7.0,9.0,75,0.00,,SKC,0.00,VWS V14.01,2013-01-16 06:18:00,
2013-01-16 00:23:00,21.0,14.3,29.83,ESE,123,2.0,6.0,75,0.00,,SKC,0.00,VWS V14.01,2013-01-16 06:23:00,
2013-01-16 00:28:00,20.8,14.1,29.83,WSW,244,2.0,8.0,75,0.00,,SKC,0.00,VWS V14.01,2013-01-16 06:28:00,
2013-01-16 00:33:00,20.7,14.4,29.81,West,273,3.0,5.0,76,0.00,,SKC,0.00,VWS V14.01,2013-01-16 06:33:00,
2013-01-16 00:38:00,20.5,14.1,29.81,SW,219,3.0,3.0,76,0.00,,SKC,0.00,VWS V14.01,2013-01-16 06:38:00,
2013-01-16 00:43:00,20.3,14.0,29.81,WNW,286,5.0,5.0,76,0.00,,SKC,0.00,VWS V14.01,2013-01-16 06:43:00,
2013-01-16 00:48:00,20.1,14.1,29.81,SSE,167,3.0,5.0,77,0.00,,SKC,0.00,VWS V14.01,2013-01-16 06:48:00,
2013-01-16 00:53:00,19.8,13.8,29.81,West,272,2.0,3.0,77,0.00,,SKC,0.00,VWS V14.01,2013-01-16 06:53:00,
2013-01-16 00:58:00,19.8,13.8,29.81,SE,145,1.0,7.0,77,0.00,,SKC,0.00,VWS V14.01,2013-01-16 06:58:00,
2013-01-16 01:03:00,19.7,14.0,29.79,WSW,253,3.0,5.0,78,0.00,,SKC,0.00,VWS V14.01,2013-01-16 07:03:00,
2013-01-16 01:08:00,19.5,13.8,29.79,WSW,252,3.0,5.0,78,0.00,,SKC,0.00,VWS V14.01,2013-01-16 07:08:00,
2013-01-16 01:13:00,19.4,13.7,29.79,WSW,241,4.0,7.0,78,0.00,,SKC,0.00,VWS V14.01,2013-01-16 07:13:00,
2013-01-16 01:18:00,19.3,13.6,29.78,SSE,165,1.0,6.0,78,0.00,,SKC,0.00,VWS V14.01,2013-01-16 07:18:00,
2013-01-16 01:23:00,19.3,13.9,29.78,West,267,8.0,10.0,79,0.00,,SKC,0.00,VWS V14.01,2013-01-16 07:23:00,
2013-01-16 01:28:00,19.2,13.8,29.78,SSW,199,2.0,3.0,79,0.00,,SKC,0.00,VWS V14.01,2013-01-16 07:28:00,
2013-01-16 01:34:00,19.1,13.7,29.77,SSW,198,2.0,5.0,79,0.00,,SKC,0.00,VWS V14.01,2013-01-16 07:34:00,
2013-01-16 01:39:00,19.1,13.7,29.77,WSW,240,1.0,8.0,79,0.00,,SKC,0.00,VWS V14.01,2013-01-16 07:39:00,
2013-01-16 01:44:00,19.1,13.7,29.77,SW,218,3.0,5.0,79,0.00,,SKC,0.00,VWS V14.01,2013-01-16 07:44:00,
2013-01-16 01:49:00,19.1,13.7,29.76,SSE,156,5.0,9.0,79,0.00,,SKC,0.00,VWS V14.01,2013-01-16 07:49:00,
2013-01-16 01:54:00,19.2,13.8,29.76,South,176,9.0,9.0,79,0.00,,SKC,0.00,VWS V14.01,2013-01-16 07:54:00,
2013-01-16 01:59:00,19.2,13.8,29.76,West,264,5.0,9.0,79,0.00,,SKC,0.00,VWS V14.01,2013-01-16 07:59:00,
2013-01-16 02:04:00,19.2,13.8,29.75,SW,219,4.0,6.0,79,0.00,,SKC,0.00,VWS V14.01,2013-01-16 08:04:00,
2013-01-16 02:09:00,19.2,13.8,29.75,West,264,3.0,10.0,79,0.00,,SKC,0.00,VWS V14.01,2013-01-16 08:09:00,
2013-01-16 02:14:00,19.3,13.9,29.75,WNW,286,4.0,9.0,79,0.00,,SKC,0.00,VWS V14.01,2013-01-16 08:14:00,
2013-01-16 02:19:00,19.3,13.9,29.74,SSE,167,0.0,10.0,79,0.00,,SKC,0.00,VWS V14.01,2013-01-16 08:19:00,
2013-01-16 02:24:00,19.4,13.7,29.74,SSW,209,5.0,11.0,78,0.00,,SKC,0.00,VWS V14.01,2013-01-16 08:24:00,
2013-01-16 02:29:00,19.5,13.8,29.74,SSW,211,5.0,10.0,78,0.00,,SKC,0.00,VWS V14.01,2013-01-16 08:29:00,
2013-01-16 02:34:00,19.5,13.8,29.73,WSW,238,2.0,5.0,78,0.00,,SKC,0.00,VWS V14.01,2013-01-16 08:34:00,
2013-01-16 02:39:00,19.4,13.7,29.73,WSW,241,5.0,6.0,78,0.00,,SKC,0.00,VWS V14.01,2013-01-16 08:39:00,
2013-01-16 02:44:00,19.4,13.7,29.73,SSE,164,1.0,10.0,78,0.00,,SKC,0.00,VWS V14.01,2013-01-16 08:44:00,
2013-01-16 02:49:00,19.4,13.7,29.71,SSW,199,1.0,11.0,78,0.00,,SKC,0.00,VWS V14.01,2013-01-16 08:49:00,
2013-01-16 02:54:00,19.4,13.7,29.71,West,269,5.0,10.0,78,0.00,,SKC,0.00,VWS V14.01,2013-01-16 08:54:00,
2013-01-16 02:59:00,19.4,13.7,29.71,West,274,3.0,8.0,78,0.00,,SKC,0.00,VWS V14.01,2013-01-16 08:59:00,
2013-01-16 03:04:00,19.3,13.6,29.70,SW,215,3.0,10.0,78,0.00,,SKC,0.00,VWS V14.01,2013-01-16 09:04:00,
2013-01-16 03:09:00,19.4,13.7,29.70,SSE,163,7.0,8.0,78,0.00,,SKC,0.00,VWS V14.01,2013-01-16 09:09:00,
2013-01-16 03:14:00,19.5,13.8,29.70,SE,132,5.0,6.0,78,0.00,,SKC,0.00,VWS V14.01,2013-01-16 09:14:00,
2013-01-16 03:19:00,19.6,13.6,29.69,SW,221,3.0,8.0,77,0.00,,SKC,0.00,VWS V14.01,2013-01-16 09:19:00,
2013-01-16 03:24:00,19.6,13.6,29.69,West,275,4.0,8.0,77,0.00,,SKC,0.00,VWS V14.01,2013-01-16 09:24:00,
2013-01-16 03:29:00,19.7,13.7,29.69,SW,215,3.0,8.0,77,0.00,,SKC,0.00,VWS V14.01,2013-01-16 09:29:00,
2013-01-16 03:34:00,19.8,13.8,29.67,SE,136,2.0,9.0,77,0.00,,SKC,0.00,VWS V14.01,2013-01-16 09:34:00,
2013-01-16 03:39:00,19.8,13.8,29.67,South,169,3.0,8.0,77,0.00,,SKC,0.00,VWS V14.01,2013-01-16 09:39:00,
2013-01-16 03:44:00,19.8,13.8,29.67,SSE,156,7.0,8.0,77,0.00,,SKC,0.00,VWS V14.01,2013-01-16 09:44:00,
2013-01-16 03:49:00,19.9,13.9,29.65,SW,223,5.0,12.0,77,0.00,,SKC,0.00,VWS V14.01,2013-01-16 09:49:00,
2013-01-16 03:54:00,20.0,14.0,29.65,WSW,237,4.0,9.0,77,0.00,,SKC,0.00,VWS V14.01,2013-01-16 09:54:00,
2013-01-16 03:59:00,20.0,14.0,29.65,West,265,7.0,8.0,77,0.00,,SKC,0.00,VWS V14.01,2013-01-16 09:59:00,
2013-01-16 04:04:00,20.1,13.8,29.64,SSW,192,2.0,6.0,76,0.00,,SKC,0.00,VWS V14.01,2013-01-16 10:04:00,
2013-01-16 04:09:00,20.1,13.8,29.64,WSW,252,6.0,8.0,76,0.00,,SKC,0.00,VWS V14.01,2013-01-16 10:09:00,
2013-01-16 04:14:00,20.1,13.8,29.64,WSW,250,6.0,7.0,76,0.00,,SKC,0.00,VWS V14.01,2013-01-16 10:14:00,
2013-01-16 04:19:00,20.2,13.9,29.62,WNW,282,3.0,8.0,76,0.00,,SKC,0.00,VWS V14.01,2013-01-16 10:19:00,
2013-01-16 04:24:00,20.3,14.0,29.62,SSW,211,7.0,8.0,76,0.00,,SKC,0.00,VWS V14.01,2013-01-16 10:24:00,
2013-01-16 04:29:00,20.3,14.0,29.62,WSW,254,5.0,10.0,76,0.00,,SKC,0.00,VWS V14.01,2013-01-16 10:29:00,
2013-01-16 04:34:00,20.4,14.1,29.60,SW,226,7.0,10.0,76,0.00,,SKC,0.00,VWS V14.01,2013-01-16 10:34:00,
2013-01-16 04:39:00,20.4,13.8,29.60,WSW,250,3.0,8.0,75,0.00,,SKC,0.00,VWS V14.01,2013-01-16 10:39:00,
2013-01-16 04:44:00,20.5,13.9,29.60,SW,229,1.0,9.0,75,0.00,,SKC,0.00,VWS V14.01,2013-01-16 10:44:00,
2013-01-16 04:49:00,20.6,13.9,29.60,SW,229,3.0,10.0,75,0.00,,SKC,0.00,VWS V14.01,2013-01-16 10:49:00,
2013-01-16 04:54:00,20.6,13.9,29.60,WSW,248,3.0,8.0,75,0.00,,SKC,0.00,VWS V14.01,2013-01-16 10:54:00,
2013-01-16 04:59:00,20.6,13.9,29.60,SW,219,6.0,9.0,75,0.00,,SKC,0.00,VWS V14.01,2013-01-16 10:59:00,
2013-01-16 05:04:00,20.7,13.7,29.58,WNW,298,4.0,11.0,74,0.00,,SKC,0.00,VWS V14.01,2013-01-16 11:04:00,
2013-01-16 05:09:00,20.7,13.7,29.58,SSW,202,4.0,10.0,74,0.00,,SKC,0.00,VWS V14.01,2013-01-16 11:09:00,
2013-01-16 05:15:00,20.7,14.0,29.58,SW,225,3.0,11.0,75,0.00,,SKC,0.00,VWS V14.01,2013-01-16 11:15:00,
2013-01-16 05:20:00,20.7,14.4,29.58,SW,226,2.0,8.0,76,0.00,,SKC,0.00,VWS V14.01,2013-01-16 11:20:00,
2013-01-16 05:25:00,20.6,14.8,29.58,SW,223,3.0,9.0,78,0.00,,SKC,0.00,VWS V14.01,2013-01-16 11:25:00,
2013-01-16 05:30:00,20.5,15.0,29.58,South,183,4.0,9.0,79,0.00,,SKC,0.00,VWS V14.01,2013-01-16 11:30:00,
2013-01-16 05:35:00,20.3,15.4,29.57,SSW,205,2.0,6.0,81,0.00,,SKC,0.00,VWS V14.01,2013-01-16 11:35:00,
2013-01-16 05:40:00,20.2,15.6,29.57,SW,219,1.0,7.0,82,0.00,,SKC,0.00,VWS V14.01,2013-01-16 11:40:00,
2013-01-16 05:45:00,20.1,15.8,29.57,WSW,250,3.0,7.0,83,0.00,,SKC,0.00,VWS V14.01,2013-01-16 11:45:00,
2013-01-16 05:50:00,20.0,15.7,29.57,NW,310,2.0,7.0,83,0.00,,SKC,0.00,VWS V14.01,2013-01-16 11:50:00,
2013-01-16 05:55:00,20.0,15.7,29.57,SSW,211,1.0,7.0,83,0.00,,SKC,0.00,VWS V14.01,2013-01-16 11:55:00,
2013-01-16 06:00:00,19.9,15.9,29.57,SSE,168,7.0,9.0,84,0.00,,SKC,0.00,VWS V14.01,2013-01-16 12:00:00,
2013-01-16 06:05:00,19.9,16.1,29.56,SW,214,9.0,9.0,85,0.00,,SKC,0.00,VWS V14.01,2013-01-16 12:05:00,
2013-01-16 06:10:00,19.8,16.3,29.56,SSE,168,5.0,7.0,86,0.00,,SKC,0.00,VWS V14.01,2013-01-16 12:10:00,
2013-01-16 06:15:00,19.8,16.6,29.56,WSW,254,2.0,11.0,87,0.00,,SKC,0.00,VWS V14.01,2013-01-16 12:15:00,
2013-01-16 06:20:00,19.8,16.6,29.55,SE,133,5.0,13.0,87,0.00,,SKC,0.00,VWS V14.01,2013-01-16 12:20:00,
2013-01-16 06:25:00,19.8,16.8,29.55,SW,222,5.0,6.0,88,0.00,,SKC,0.00,VWS V14.01,2013-01-16 12:25:00,
2013-01-16 06:30:00,19.9,16.9,29.55,SSW,205,3.0,6.0,88,0.00,,SKC,0.00,VWS V14.01,2013-01-16 12:30:00,
2013-01-16 06:35:00,20.0,17.0,29.54,WSW,257,3.0,8.0,88,0.00,,SKC,0.00,VWS V14.01,2013-01-16 12:35:00,
2013-01-16 06:40:00,20.0,17.3,29.54,SSW,203,11.0,11.0,89,0.00,,SKC,0.00,VWS V14.01,2013-01-16 12:40:00,
2013-01-16 06:45:00,20.1,17.4,29.54,SW,223,5.0,5.0,89,0.00,,SKC,0.00,VWS V14.01,2013-01-16 12:45:00,
2013-01-16 06:50:00,20.2,17.5,29.55,SW,219,7.0,7.0,89,0.00,,SKC,0.00,VWS V14.01,2013-01-16 12:50:00,
2013-01-16 06:55:00,20.3,17.6,29.55,SSE,167,0.0,7.0,89,0.00,,SKC,0.00,VWS V14.01,2013-01-16 12:55:00,
2013-01-16 07:00:00,20.4,17.7,29.55,WSW,248,0.0,7.0,89,0.00,,SKC,0.00,VWS V14.01,2013-01-16 13:00:00,
2013-01-16 07:05:00,20.6,17.9,29.55,West,274,1.0,7.0,89,0.00,,SKC,0.00,VWS V14.01,2013-01-16 13:05:00,
2013-01-16 07:10:00,20.7,18.0,29.55,SW,236,3.0,7.0,89,0.00,,SKC,0.00,VWS V14.01,2013-01-16 13:10:00,
2013-01-16 07:15:00,20.9,18.2,29.55,SW,227,1.0,8.0,89,0.00,,SKC,0.00,VWS V14.01,2013-01-16 13:15:00,
2013-01-16 07:20:00,20.9,18.2,29.55,WNW,286,6.0,8.0,89,0.00,,SKC,0.00,VWS V14.01,2013-01-16 13:20:00,
2013-01-16 07:25:00,20.9,18.2,29.55,WSW,254,3.0,9.0,89,0.00,,SKC,0.00,VWS V14.01,2013-01-16 13:25:00,
2013-01-16 07:30:00,20.9,18.2,29.55,WSW,258,1.0,9.0,89,0.00,,SKC,0.00,VWS V14.01,2013-01-16 13:30:00,
2013-01-16 07:35:00,20.8,18.1,29.56,West,262,2.0,6.0,89,0.00,,SKC,0.00,VWS V14.01,2013-01-16 13:35:00,
2013-01-16 07:40:00,20.8,18.1,29.56,WSW,244,2.0,8.0,89,0.00,,SKC,0.00,VWS V14.01,2013-01-16 13:40:00,
2013-01-16 07:45:00,20.7,18.0,29.56,WSW,241,2.0,6.0,89,0.00,,SKC,0.00,VWS V14.01,2013-01-16 13:45:00,
2013-01-16 07:50:00,20.6,18.1,29.56,SW,234,4.0,10.0,90,0.00,,SKC,0.00,VWS V14.01,2013-01-16 13:50:00,
2013-01-16 07:55:00,20.6,18.1,29.56,SW,215,9.0,9.0,90,0.00,,SKC,0.00,VWS V14.01,2013-01-16 13:55:00,
2013-01-16 08:00:00,20.6,18.1,29.56,WSW,252,3.0,10.0,90,0.00,,SKC,0.00,VWS V14.01,2013-01-16 14:00:00,
2013-01-16 08:05:00,20.6,18.1,29.56,SSW,211,4.0,6.0,90,0.00,,SKC,0.00,VWS V14.01,2013-01-16 14:05:00,
2013-01-16 08:10:00,20.6,18.1,29.56,SSW,195,4.0,6.0,90,0.00,,SKC,0.00,VWS V14.01,2013-01-16 14:10:00,
2013-01-16 08:15:00,20.6,18.1,29.56,WSW,248,4.0,10.0,90,0.00,,SKC,0.00,VWS V14.01,2013-01-16 14:15:00,
2013-01-16 08:20:00,20.6,18.1,29.56,West,267,5.0,7.0,90,0.00,,SKC,0.00,VWS V14.01,2013-01-16 14:20:00,
2013-01-16 08:25:00,20.7,18.2,29.56,SW,233,3.0,5.0,90,0.00,,SKC,0.00,VWS V14.01,2013-01-16 14:25:00,
2013-01-16 08:30:00,20.8,18.1,29.56,SSW,211,3.0,11.0,89,0.00,,SKC,0.00,VWS V14.01,2013-01-16 14:30:00,
2013-01-16 08:35:00,20.8,18.1,29.56,SSW,213,4.0,6.0,89,0.00,,SKC,0.00,VWS V14.01,2013-01-16 14:35:00,
2013-01-16 08:40:00,20.9,18.2,29.56,WSW,256,3.0,6.0,89,0.00,,SKC,0.00,VWS V14.01,2013-01-16 14:40:00,
2013-01-16 08:45:00,21.0,18.3,29.56,SW,225,4.0,8.0,89,0.00,,SKC,0.00,VWS V14.01,2013-01-16 14:45:00,
2013-01-16 08:50:00,21.1,18.4,29.56,SW,221,2.0,6.0,89,0.00,,SKC,0.00,VWS V14.01,2013-01-16 14:50:00,
2013-01-16 08:55:00,21.2,18.5,29.56,SSE,155,3.0,6.0,89,0.00,,SKC,0.00,VWS V14.01,2013-01-16 14:55:00,
2013-01-16 09:00:00,21.3,18.6,29.56,WSW,248,3.0,8.0,89,0.00,,SKC,0.00,VWS V14.01,2013-01-16 15:00:00,
2013-01-16 09:05:00,21.4,18.7,29.56,West,269,4.0,4.0,89,0.00,,SKC,0.00,VWS V14.01,2013-01-16 15:05:00,
2013-01-16 09:10:00,21.5,18.8,29.56,WSW,258,3.0,10.0,89,0.00,,SKC,0.00,VWS V14.01,2013-01-16 15:10:00,
2013-01-16 09:15:00,21.6,18.9,29.56,West,261,3.0,5.0,89,0.00,,SKC,0.00,VWS V14.01,2013-01-16 15:15:00,
2013-01-16 09:20:00,21.7,19.0,29.56,West,265,3.0,4.0,89,0.00,,SKC,0.00,VWS V14.01,2013-01-16 15:20:00,
2013-01-16 09:25:00,21.7,19.0,29.56,WNW,286,3.0,6.0,89,0.00,,SKC,0.00,VWS V14.01,2013-01-16 15:25:00,
2013-01-16 09:30:00,21.9,19.2,29.56,SW,234,5.0,6.0,89,0.00,,SKC,0.00,VWS V14.01,2013-01-16 15:30:00,
2013-01-16 09:35:00,22.0,19.3,29.56,WNW,286,4.0,4.0,89,0.00,,SKC,0.00,VWS V14.01,2013-01-16 15:35:00,
2013-01-16 09:40:00,22.1,19.4,29.56,West,267,2.0,5.0,89,0.00,,SKC,0.00,VWS V14.01,2013-01-16 15:40:00,
2013-01-16 09:45:00,22.2,19.5,29.56,West,259,2.0,5.0,89,0.00,,SKC,0.00,VWS V14.01,2013-01-16 15:45:00,
2013-01-16 09:50:00,22.4,19.7,29.57,WSW,245,4.0,6.0,89,0.00,,SKC,0.00,VWS V14.01,2013-01-16 15:50:00,
2013-01-16 09:55:00,22.5,19.8,29.57,WSW,256,3.0,5.0,89,0.00,,SKC,0.00,VWS V14.01,2013-01-16 15:55:00,
2013-01-16 10:00:00,22.6,19.9,29.57,WSW,252,0.0,5.0,89,0.00,,SKC,0.00,VWS V14.01,2013-01-16 16:00:00,
2013-01-16 10:05:00,22.7,20.0,29.57,WSW,253,3.0,4.0,89,0.00,,SKC,0.00,VWS V14.01,2013-01-16 16:05:00,
2013-01-16 10:10:00,22.9,20.1,29.57,WSW,252,2.0,6.0,89,0.00,,SKC,0.00,VWS V14.01,2013-01-16 16:10:00,
2013-01-16 10:16:00,23.1,20.4,29.57,West,280,3.0,7.0,89,0.00,,SKC,0.00,VWS V14.01,2013-01-16 16:16:00,
2013-01-16 10:21:00,23.2,20.5,29.57,WSW,256,2.0,6.0,89,0.00,,SKC,0.00,VWS V14.01,2013-01-16 16:21:00,
2013-01-16 10:26:00,23.4,20.6,29.57,West,261,3.0,4.0,89,0.00,,SKC,0.00,VWS V14.01,2013-01-16 16:26:00,
2013-01-16 10:31:00,23.6,20.8,29.57,West,268,2.0,5.0,89,0.00,,SKC,0.00,VWS V14.01,2013-01-16 16:31:00,
2013-01-16 10:36:00,23.7,20.9,29.58,West,270,3.0,5.0,89,0.00,,SKC,0.00,VWS V14.01,2013-01-16 16:36:00,
2013-01-16 10:41:00,23.8,21.3,29.58,West,260,3.0,5.0,90,0.00,,SKC,0.00,VWS V14.01,2013-01-16 16:41:00,
2013-01-16 10:46:00,24.0,21.5,29.58,West,280,5.0,6.0,90,0.00,,SKC,0.00,VWS V14.01,2013-01-16 16:46:00,
2013-01-16 10:51:00,24.0,21.8,29.58,WNW,284,5.0,9.0,91,0.00,,SKC,0.00,VWS V14.01,2013-01-16 16:51:00,
2013-01-16 10:56:00,24.1,21.9,29.58,WNW,285,6.0,9.0,91,0.00,,SKC,0.00,VWS V14.01,2013-01-16 16:56:00,
2013-01-16 11:01:00,24.1,22.1,29.58,West,265,3.0,8.0,92,0.00,,SKC,0.00,VWS V14.01,2013-01-16 17:01:00,
2013-01-16 11:06:00,24.2,22.2,29.57,West,268,7.0,7.0,92,0.00,,SKC,0.00,VWS V14.01,2013-01-16 17:06:00,
2013-01-16 11:11:00,24.3,22.3,29.57,WNW,285,3.0,8.0,92,0.00,,SKC,0.00,VWS V14.01,2013-01-16 17:11:00,
2013-01-16 11:16:00,24.4,22.4,29.57,West,271,3.0,7.0,92,0.00,,SKC,0.00,VWS V14.01,2013-01-16 17:16:00,
2013-01-16 11:21:00,24.4,22.4,29.57,WSW,246,2.0,7.0,92,0.00,,SKC,0.00,VWS V14.01,2013-01-16 17:21:00,
2013-01-16 11:26:00,24.4,22.7,29.57,SW,234,2.0,6.0,93,0.00,,SKC,0.00,VWS V14.01,2013-01-16 17:26:00,
2013-01-16 11:31:00,24.5,22.8,29.57,WSW,256,3.0,8.0,93,0.00,,SKC,0.00,VWS V14.01,2013-01-16 17:31:00,
2013-01-16 11:36:00,24.6,22.9,29.58,WNW,284,4.0,8.0,93,0.00,,SKC,0.00,VWS V14.01,2013-01-16 17:36:00,
2013-01-16 11:41:00,24.6,22.9,29.58,West,259,6.0,10.0,93,0.00,,SKC,0.00,VWS V14.01,2013-01-16 17:41:00,
2013-01-16 11:46:00,24.6,22.9,29.58,West,268,4.0,8.0,93,0.00,,SKC,0.00,VWS V14.01,2013-01-16 17:46:00,
2013-01-16 11:51:00,24.6,23.1,29.59,West,264,3.0,8.0,94,0.00,,SKC,0.00,VWS V14.01,2013-01-16 17:51:00,
2013-01-16 11:56:00,24.6,22.9,29.59,WNW,284,8.0,9.0,93,0.00,,SKC,0.00,VWS V14.01,2013-01-16 17:56:00,
2013-01-16 12:01:00,24.7,23.0,29.59,West,277,6.0,9.0,93,0.00,,SKC,0.00,VWS V14.01,2013-01-16 18:01:00,
2013-01-16 12:06:00,24.7,23.0,29.59,WSW,252,4.0,11.0,93,0.00,,SKC,0.00,VWS V14.01,2013-01-16 18:06:00,
2013-01-16 12:11:00,24.8,23.1,29.59,WSW,253,6.0,8.0,93,0.00,,SKC,0.00,VWS V14.01,2013-01-16 18:11:00,
2013-01-16 12:16:00,24.8,23.1,29.59,West,267,6.0,16.0,93,0.00,,SKC,0.00,VWS V14.01,2013-01-16 18:16:00,
2013-01-16 12:21:00,24.9,23.2,29.59,WSW,256,4.0,11.0,93,0.00,,SKC,0.00,VWS V14.01,2013-01-16 18:21:00,
2013-01-16 12:26:00,24.9,23.2,29.59,WNW,289,9.0,9.0,93,0.00,,SKC,0.00,VWS V14.01,2013-01-16 18:26:00,
2013-01-16 12:31:00,25.0,23.3,29.59,WSW,256,3.0,8.0,93,0.00,,SKC,0.00,VWS V14.01,2013-01-16 18:31:00,
2013-01-16 12:36:00,25.0,23.0,29.59,West,279,3.0,11.0,92,0.00,,SKC,0.00,VWS V14.01,2013-01-16 18:36:00,
2013-01-16 12:41:00,25.1,23.1,29.59,West,275,3.0,7.0,92,0.00,,SKC,0.00,VWS V14.01,2013-01-16 18:41:00,
2013-01-16 12:46:00,25.1,23.1,29.59,WNW,294,2.0,8.0,92,0.00,,SKC,0.00,VWS V14.01,2013-01-16 18:46:00,
2013-01-16 12:51:00,25.2,23.2,29.60,WNW,283,5.0,8.0,92,0.00,,SKC,0.00,VWS V14.01,2013-01-16 18:51:00,
2013-01-16 12:56:00,25.3,23.3,29.60,WNW,294,7.0,8.0,92,0.00,,SKC,0.00,VWS V14.01,2013-01-16 18:56:00,
2013-01-16 13:01:00,25.3,23.3,29.60,NW,318,3.0,4.0,92,0.00,,SKC,0.00,VWS V14.01,2013-01-16 19:01:00,
2013-01-16 13:06:00,25.4,23.1,29.60,WNW,302,1.0,7.0,91,0.00,,SKC,0.00,VWS V14.01,2013-01-16 19:06:00,
2013-01-16 13:11:00,25.5,23.2,29.60,WSW,250,4.0,8.0,91,0.00,,SKC,0.00,VWS V14.01,2013-01-16 19:11:00,
2013-01-16 13:16:00,25.6,23.3,29.60,WSW,245,2.0,8.0,91,0.00,,SKC,0.00,VWS V14.01,2013-01-16 19:16:00,
2013-01-16 13:21:00,25.7,23.4,29.60,West,279,3.0,14.0,91,0.00,,SKC,0.00,VWS V14.01,2013-01-16 19:21:00,
2013-01-16 13:26:00,25.7,23.4,29.60,WSW,240,1.0,9.0,91,0.00,,SKC,0.00,VWS V14.01,2013-01-16 19:26:00,
2013-01-16 13:31:00,25.8,23.3,29.60,WNW,286,4.0,10.0,90,0.00,,SKC,0.00,VWS V14.01,2013-01-16 19:31:00,
2013-01-16 13:36:00,25.9,23.4,29.61,SW,217,3.0,10.0,90,0.00,,SKC,0.00,VWS V14.01,2013-01-16 19:36:00,
2013-01-16 13:41:00,25.9,23.4,29.61,WSW,246,3.0,8.0,90,0.00,,SKC,0.00,VWS V14.01,2013-01-16 19:41:00,
2013-01-16 13:46:00,26.0,23.5,29.61,WNW,286,4.0,9.0,90,0.00,,SKC,0.00,VWS V14.01,2013-01-16 19:46:00,
2013-01-16 13:51:00,26.1,23.3,29.62,WNW,284,6.0,8.0,89,0.00,,SKC,0.00,VWS V14.01,2013-01-16 19:51:00,
2013-01-16 13:56:00,26.1,23.3,29.62,WNW,282,4.0,9.0,89,0.00,,SKC,0.00,VWS V14.01,2013-01-16 19:56:00,
2013-01-16 14:01:00,26.2,23.4,29.62,West,261,1.0,5.0,89,0.00,,SKC,0.00,VWS V14.01,2013-01-16 20:01:00,
2013-01-16 14:06:00,26.3,23.2,29.62,WNW,302,3.0,10.0,88,0.00,,SKC,0.00,VWS V14.01,2013-01-16 20:06:00,
2013-01-16 14:11:00,26.5,23.2,29.62,WSW,254,1.0,12.0,87,0.00,,SKC,0.00,VWS V14.01,2013-01-16 20:11:00,
2013-01-16 14:16:00,26.5,23.2,29.62,West,271,4.0,6.0,87,0.00,,SKC,0.00,VWS V14.01,2013-01-16 20:16:00,
2013-01-16 14:21:00,26.6,23.0,29.63,West,276,2.0,9.0,86,0.00,,SKC,0.00,VWS V14.01,2013-01-16 20:21:00,
2013-01-16 14:26:00,26.7,23.1,29.63,West,271,1.0,10.0,86,0.00,,SKC,0.00,VWS V14.01,2013-01-16 20:26:00,
2013-01-16 14:31:00,26.7,23.1,29.63,West,272,3.0,10.0,86,0.00,,SKC,0.00,VWS V14.01,2013-01-16 20:31:00,
2013-01-16 14:36:00,26.8,22.9,29.64,West,264,1.0,7.0,85,0.00,,SKC,0.00,VWS V14.01,2013-01-16 20:36:00,
2013-01-16 14:41:00,26.8,22.9,29.64,WSW,250,3.0,5.0,85,0.00,,SKC,0.00,VWS V14.01,2013-01-16 20:41:00,
2013-01-16 14:46:00,26.8,22.9,29.64,WSW,254,1.0,8.0,85,0.00,,SKC,0.00,VWS V14.01,2013-01-16 20:46:00,
2013-01-16 14:51:00,26.9,23.0,29.65,West,264,2.0,7.0,85,0.00,,SKC,0.00,VWS V14.01,2013-01-16 20:51:00,
2013-01-16 14:56:00,26.9,23.0,29.65,WNW,289,2.0,6.0,85,0.00,,SKC,0.00,VWS V14.01,2013-01-16 20:56:00,
2013-01-16 15:01:00,26.9,22.7,29.65,West,279,2.0,6.0,84,0.00,,SKC,0.00,VWS V14.01,2013-01-16 21:01:00,
2013-01-16 15:06:00,26.9,22.7,29.67,West,272,5.0,8.0,84,0.00,,SKC,0.00,VWS V14.01,2013-01-16 21:06:00,
2013-01-16 15:11:00,27.0,22.5,29.67,WSW,255,0.0,11.0,83,0.00,,SKC,0.00,VWS V14.01,2013-01-16 21:11:00,
2013-01-16 15:16:00,26.9,22.4,29.67,West,263,0.0,6.0,83,0.00,,SKC,0.00,VWS V14.01,2013-01-16 21:16:00,
2013-01-16 15:21:00,26.9,22.4,29.67,WNW,287,5.0,6.0,83,0.00,,SKC,0.00,VWS V14.01,2013-01-16 21:21:00,
2013-01-16 15:26:00,27.0,22.5,29.67,SSW,209,2.0,8.0,83,0.00,,SKC,0.00,VWS V14.01,2013-01-16 21:26:00,
2013-01-16 15:31:00,27.0,22.2,29.67,WSW,250,1.0,7.0,82,0.00,,SKC,0.00,VWS V14.01,2013-01-16 21:31:00,
2013-01-16 15:36:00,27.0,22.5,29.68,WNW,290,0.0,4.0,83,0.00,,SKC,0.00,VWS V14.01,2013-01-16 21:36:00,
2013-01-16 15:41:00,27.0,22.2,29.68,West,275,0.0,6.0,82,0.00,,SKC,0.00,VWS V14.01,2013-01-16 21:41:00,
2013-01-16 15:46:00,27.0,22.2,29.70,West,280,5.0,6.0,82,0.00,,SKC,0.00,VWS V14.01,2013-01-16 21:46:00,
2013-01-16 15:51:00,27.0,22.0,29.70,WNW,298,5.0,7.0,81,0.00,,SKC,0.00,VWS V14.01,2013-01-16 21:51:00,
2013-01-16 15:56:00,26.9,21.3,29.70,West,260,2.0,9.0,79,0.00,,SKC,0.00,VWS V14.01,2013-01-16 21:56:00,
2013-01-16 16:01:00,26.9,21.3,29.70,WNW,295,1.0,8.0,79,0.00,,SKC,0.00,VWS V14.01,2013-01-16 22:01:00,
2013-01-16 16:06:00,26.8,20.9,29.70,West,271,1.0,11.0,78,0.00,,SKC,0.00,VWS V14.01,2013-01-16 22:06:00,
2013-01-16 16:11:00,26.7,20.8,29.70,West,269,2.0,11.0,78,0.00,,SKC,0.00,VWS V14.01,2013-01-16 22:11:00,
2013-01-16 16:16:00,26.7,21.1,29.72,West,272,0.0,4.0,79,0.00,,SKC,0.00,VWS V14.01,2013-01-16 22:16:00,
2013-01-16 16:21:00,26.7,21.1,29.72,NW,304,1.0,5.0,79,0.00,,SKC,0.00,VWS V14.01,2013-01-16 22:21:00,
2013-01-16 16:26:00,26.5,19.4,29.72,NW,311,2.0,8.0,74,0.00,,SKC,0.00,VWS V14.01,2013-01-16 22:26:00,
2013-01-16 16:31:00,26.3,18.8,29.73,WNW,288,4.0,5.0,73,0.00,,SKC,0.00,VWS V14.01,2013-01-16 22:31:00,
2013-01-16 16:36:00,26.2,18.4,29.73,WNW,300,2.0,8.0,72,0.00,,SKC,0.00,VWS V14.01,2013-01-16 22:36:00,
2013-01-16 16:41:00,26.0,18.2,29.73,West,269,5.0,8.0,72,0.00,,SKC,0.00,VWS V14.01,2013-01-16 22:41:00,
2013-01-16 16:46:00,25.9,18.5,29.75,West,277,2.0,7.0,73,0.00,,SKC,0.00,VWS V14.01,2013-01-16 22:46:00,
2013-01-16 16:52:00,25.8,18.4,29.75,West,273,3.0,11.0,73,0.00,,SKC,0.00,VWS V14.01,2013-01-16 22:52:00,
2013-01-16 16:56:00,25.8,18.4,29.75,WNW,300,5.0,9.0,73,0.00,,SKC,0.00,VWS V14.01,2013-01-16 22:56:00,
2013-01-16 17:01:00,25.6,18.2,29.75,West,277,5.0,7.0,73,0.00,,SKC,0.00,VWS V14.01,2013-01-16 23:01:00,
2013-01-16 17:06:00,25.5,18.4,29.75,WNW,297,2.0,6.0,74,0.00,,SKC,0.00,VWS V14.01,2013-01-16 23:06:00,
2013-01-16 17:11:00,25.4,18.3,29.75,West,280,4.0,7.0,74,0.00,,SKC,0.00,VWS V14.01,2013-01-16 23:11:00,
2013-01-16 17:17:00,25.3,18.2,29.77,West,280,2.0,7.0,74,0.00,,SKC,0.00,VWS V14.01,2013-01-16 23:17:00,
2013-01-16 17:22:00,25.2,17.5,29.77,NNE,19,3.0,4.0,72,0.00,,SKC,0.00,VWS V14.01,2013-01-16 23:22:00,
2013-01-16 17:27:00,25.0,16.9,29.77,West,268,4.0,10.0,71,0.00,,SKC,0.00,VWS V14.01,2013-01-16 23:27:00,
2013-01-16 17:32:00,24.7,16.0,29.78,WSW,254,5.0,7.0,69,0.00,,SKC,0.00,VWS V14.01,2013-01-16 23:32:00,
2013-01-16 17:37:00,24.6,16.2,29.78,West,277,1.0,8.0,70,0.00,,SKC,0.00,VWS V14.01,2013-01-16 23:37:00,
2013-01-16 17:40:00,21.5,15.1,29.84,WNW,286,1.0,5.0,76,0.00,,SKC,0.00,VWS V14.01,2013-01-16 23:40:00,
2013-01-16 17:42:00,24.4,15.7,29.78,NNW,327,3.0,7.0,69,0.00,,SKC,0.00,VWS V14.01,2013-01-16 23:42:00,
2013-01-16 17:45:00,21.2,13.3,29.85,WNW,290,2.0,7.0,71,0.00,,SKC,0.00,VWS V14.01,2013-01-16 23:45:00,
2013-01-16 17:47:00,24.2,15.8,29.80,NW,306,2.0,4.0,70,0.00,,SKC,0.00,VWS V14.01,2013-01-16 23:47:00,
2013-01-16 17:50:00,21.0,12.1,29.85,WNW,286,3.0,8.0,68,0.00,,SKC,0.00,VWS V14.01,2013-01-16 23:50:00,
2013-01-16 17:52:00,24.0,15.6,29.80,West,271,2.0,5.0,70,0.00,,SKC,0.00,VWS V14.01,2013-01-16 23:52:00,
2013-01-16 17:55:00,20.8,11.6,29.85,West,273,3.0,6.0,67,0.00,,SKC,0.00,VWS V14.01,2013-01-16 23:55:00,
2013-01-16 17:57:00,23.8,15.8,29.80,WNW,282,1.0,6.0,71,0.00,,SKC,0.00,VWS V14.01,2013-01-16 23:57:00,
2013-01-16 18:00:00,20.6,11.7,29.86,WNW,288,2.0,5.0,68,0.00,,SKC,0.00,VWS V14.01,2013-01-17 00:00:00,
2013-01-16 18:02:00,23.5,15.8,29.81,NE,43,3.0,4.0,72,0.00,,SKC,0.00,VWS V14.01,2013-01-17 00:02:00,
2013-01-16 18:07:00,23.4,16.0,29.81,WNW,282,3.0,5.0,73,0.00,,SKC,0.00,VWS V14.01,2013-01-17 00:07:00,
2013-01-16 18:10:00,20.4,12.2,29.86,NW,304,2.0,9.0,70,0.00,,SKC,0.00,VWS V14.01,2013-01-17 00:10:00,
2013-01-16 18:12:00,23.2,16.5,29.81,West,265,2.0,4.0,75,0.00,,SKC,0.00,VWS V14.01,2013-01-17 00:12:00,
2013-01-16 18:17:00,22.9,16.5,29.83,West,276,1.0,8.0,76,0.00,,SKC,0.00,VWS V14.01,2013-01-17 00:17:00,
2013-01-16 18:22:00,22.6,16.2,29.83,North,11,1.0,6.0,76,0.00,,SKC,0.00,VWS V14.01,2013-01-17 00:22:00,
2013-01-16 18:25:00,19.3,10.8,29.88,ENE,61,2.0,5.0,69,0.00,,SKC,0.00,VWS V14.01,2013-01-17 00:25:00,
2013-01-16 18:27:00,22.4,16.0,29.83,West,277,4.0,7.0,76,0.00,,SKC,0.00,VWS V14.01,2013-01-17 00:27:00,
2013-01-16 18:30:00,19.0,10.5,29.88,NW,325,1.0,6.0,69,0.00,,SKC,0.00,VWS V14.01,2013-01-17 00:30:00,
2013-01-16 18:32:00,22.2,16.1,29.84,WNW,286,3.0,5.0,77,0.00,,SKC,0.00,VWS V14.01,2013-01-17 00:32:00,
2013-01-16 18:35:00,18.8,10.6,29.88,West,275,2.0,6.0,70,0.00,,SKC,0.00,VWS V14.01,2013-01-17 00:35:00,
2013-01-16 18:37:00,21.9,15.5,29.84,West,272,0.0,4.0,76,0.00,,SKC,0.00,VWS V14.01,2013-01-17 00:37:00,
2013-01-16 18:40:00,18.6,10.8,29.88,West,261,3.0,7.0,71,0.00,,SKC,0.00,VWS V14.01,2013-01-17 00:40:00,
2013-01-16 18:42:00,21.6,15.2,29.84,West,280,2.0,5.0,76,0.00,,SKC,0.00,VWS V14.01,2013-01-17 00:42:00,
2013-01-16 18:45:00,18.4,10.6,29.89,WNW,294,1.0,7.0,71,0.00,,SKC,0.00,VWS V14.01,2013-01-17 00:45:00,
2013-01-16 18:47:00,21.3,13.4,29.85,WNW,303,2.0,7.0,71,0.00,,SKC,0.00,VWS V14.01,2013-01-17 00:47:00,
2013-01-16 18:50:00,18.2,10.4,29.89,West,280,5.0,6.0,71,0.00,,SKC,0.00,VWS V14.01,2013-01-17 00:50:00,
2013-01-16 18:52:00,21.0,12.1,29.85,SW,236,4.0,8.0,68,0.00,,SKC,0.00,VWS V14.01,2013-01-17 00:52:00,
2013-01-16 18:55:00,18.1,10.6,29.89,WNW,294,2.0,6.0,72,0.00,,SKC,0.00,VWS V14.01,2013-01-17 00:55:00,
2013-01-16 18:57:00,20.8,11.6,29.85,WNW,292,3.0,6.0,67,0.00,,SKC,0.00,VWS V14.01,2013-01-17 00:57:00,
2013-01-16 19:00:00,17.9,10.4,29.91,WSW,256,0.0,4.0,72,0.00,,SKC,0.00,VWS V14.01,2013-01-17 01:00:00,
2013-01-16 19:02:00,20.6,11.7,29.86,West,275,3.0,5.0,68,0.00,,SKC,0.00,VWS V14.01,2013-01-17 01:02:00,
2013-01-16 19:05:00,17.7,10.2,29.91,WNW,292,3.0,6.0,72,0.00,,SKC,0.00,VWS V14.01,2013-01-17 01:05:00,
2013-01-16 19:07:00,20.5,12.3,29.86,West,261,2.0,6.0,70,0.00,,SKC,0.00,VWS V14.01,2013-01-17 01:07:00,
2013-01-16 19:10:00,17.7,10.2,29.91,WNW,290,6.0,6.0,72,0.00,,SKC,0.00,VWS V14.01,2013-01-17 01:10:00,
2013-01-16 19:12:00,20.4,12.2,29.86,SW,236,1.0,9.0,70,0.00,,SKC,0.00,VWS V14.01,2013-01-17 01:12:00,
2013-01-16 19:15:00,17.6,10.1,29.92,West,265,5.0,10.0,72,0.00,,SKC,0.00,VWS V14.01,2013-01-17 01:15:00,
2013-01-16 19:17:00,20.2,12.0,29.88,WNW,303,2.0,13.0,70,0.00,,SKC,0.00,VWS V14.01,2013-01-17 01:17:00,
2013-01-16 19:20:00,17.6,9.8,29.92,WNW,286,1.0,8.0,71,0.00,,SKC,0.00,VWS V14.01,2013-01-17 01:20:00,
2013-01-16 19:22:00,19.7,11.2,29.88,WSW,257,2.0,7.0,69,0.00,,SKC,0.00,VWS V14.01,2013-01-17 01:22:00,
2013-01-16 19:25:00,17.5,9.4,29.92,WNW,284,1.0,7.0,70,0.00,,SKC,0.00,VWS V14.01,2013-01-17 01:25:00,
2013-01-16 19:27:00,19.3,10.8,29.88,WNW,289,3.0,5.0,69,0.00,,SKC,0.00,VWS V14.01,2013-01-17 01:27:00,
2013-01-16 19:30:00,17.4,9.3,29.93,West,275,2.0,6.0,70,0.00,,SKC,0.00,VWS V14.01,2013-01-17 01:30:00,
2013-01-16 19:32:00,19.1,10.6,29.88,NW,304,1.0,6.0,69,0.00,,SKC,0.00,VWS V14.01,2013-01-17 01:32:00,
2013-01-16 19:35:00,17.4,9.3,29.93,West,279,6.0,6.0,70,0.00,,SKC,0.00,VWS V14.01,2013-01-17 01:35:00,
2013-01-16 19:37:00,18.8,10.6,29.88,WNW,286,3.0,6.0,70,0.00,,SKC,0.00,VWS V14.01,2013-01-17 01:37:00,
2013-01-16 19:40:00,17.4,9.0,29.93,WSW,248,2.0,6.0,69,0.00,,SKC,0.00,VWS V14.01,2013-01-17 01:40:00,
2013-01-16 19:42:00,18.6,10.5,29.88,WSW,250,2.0,7.0,70,0.00,,SKC,0.00,VWS V14.01,2013-01-17 01:42:00,
2013-01-16 19:45:00,17.4,9.0,29.93,West,264,4.0,7.0,69,0.00,,SKC,0.00,VWS V14.01,2013-01-17 01:45:00,
2013-01-16 19:47:00,18.4,10.6,29.89,WNW,294,1.0,7.0,71,0.00,,SKC,0.00,VWS V14.01,2013-01-17 01:47:00,
2013-01-16 19:50:00,17.4,9.0,29.93,WNW,283,2.0,6.0,69,0.00,,SKC,0.00,VWS V14.01,2013-01-17 01:50:00,
2013-01-16 19:52:00,18.2,10.4,29.89,WNW,294,2.0,6.0,71,0.00,,SKC,0.00,VWS V14.01,2013-01-17 01:52:00,
2013-01-16 19:55:00,17.4,9.0,29.93,West,277,3.0,7.0,69,0.00,,SKC,0.00,VWS V14.01,2013-01-17 01:55:00,
2013-01-16 19:57:00,18.1,10.6,29.89,WNW,286,2.0,6.0,72,0.00,,SKC,0.00,VWS V14.01,2013-01-17 01:57:00,
2013-01-16 20:00:00,17.3,8.9,29.95,West,272,4.0,7.0,69,0.00,,SKC,0.00,VWS V14.01,2013-01-17 02:00:00,
2013-01-16 20:02:00,17.9,10.4,29.91,WSW,254,0.0,4.0,72,0.00,,SKC,0.00,VWS V14.01,2013-01-17 02:02:00,
2013-01-16 20:05:00,17.3,8.9,29.95,WNW,286,3.0,8.0,69,0.00,,SKC,0.00,VWS V14.01,2013-01-17 02:05:00,
2013-01-16 20:07:00,17.7,10.2,29.91,West,281,4.0,6.0,72,0.00,,SKC,0.00,VWS V14.01,2013-01-17 02:07:00,
2013-01-16 20:10:00,17.2,8.8,29.95,NNW,339,2.0,7.0,69,0.00,,SKC,0.00,VWS V14.01,2013-01-17 02:10:00,
2013-01-16 20:12:00,17.7,10.2,29.91,West,272,1.0,6.0,72,0.00,,SKC,0.00,VWS V14.01,2013-01-17 02:12:00,
2013-01-16 20:15:00,17.1,8.7,29.96,NW,304,1.0,7.0,69,0.00,,SKC,0.00,VWS V14.01,2013-01-17 02:15:00,
2013-01-16 20:17:00,17.6,10.1,29.92,West,267,3.0,10.0,72,0.00,,SKC,0.00,VWS V14.01,2013-01-17 02:17:00,
2013-01-16 20:20:00,16.8,8.7,29.96,West,277,2.0,4.0,70,0.00,,SKC,0.00,VWS V14.01,2013-01-17 02:20:00,
2013-01-16 20:22:00,17.6,9.8,29.92,West,261,2.0,8.0,71,0.00,,SKC,0.00,VWS V14.01,2013-01-17 02:22:00,
2013-01-16 20:25:00,16.7,8.6,29.96,West,263,3.0,6.0,70,0.00,,SKC,0.00,VWS V14.01,2013-01-17 02:25:00,
2013-01-16 20:27:00,17.5,9.4,29.92,WNW,284,2.0,7.0,70,0.00,,SKC,0.00,VWS V14.01,2013-01-17 02:27:00,
2013-01-16 20:30:00,16.5,8.1,29.96,West,268,3.0,7.0,69,0.00,,SKC,0.00,VWS V14.01,2013-01-17 02:30:00,
2013-01-16 20:32:00,17.4,9.3,29.93,West,268,1.0,6.0,70,0.00,,SKC,0.00,VWS V14.01,2013-01-17 02:32:00,
2013-01-16 20:35:00,16.3,7.9,29.96,WNW,288,4.0,9.0,69,0.00,,SKC,0.00,VWS V14.01,2013-01-17 02:35:00,
2013-01-16 20:37:00,17.4,9.3,29.93,West,280,3.0,5.0,70,0.00,,SKC,0.00,VWS V14.01,2013-01-17 02:37:00,
2013-01-16 20:40:00,16.0,7.6,29.96,West,265,2.0,9.0,69,0.00,,SKC,0.00,VWS V14.01,2013-01-17 02:40:00,
2013-01-16 20:42:00,17.5,9.1,29.93,WNW,291,3.0,6.0,69,0.00,,SKC,0.00,VWS V14.01,2013-01-17 02:42:00,
2013-01-16 20:45:00,15.8,7.8,29.96,WNW,292,3.0,5.0,70,0.00,,SKC,0.00,VWS V14.01,2013-01-17 02:45:00,
2013-01-16 20:47:00,17.4,9.0,29.93,WNW,287,3.0,7.0,69,0.00,,SKC,0.00,VWS V14.01,2013-01-17 02:47:00,
2013-01-16 20:50:00,15.6,7.6,29.96,WNW,295,3.0,9.0,70,0.00,,SKC,0.00,VWS V14.01,2013-01-17 02:50:00,
2013-01-16 20:52:00,17.4,9.0,29.93,WSW,253,1.0,6.0,69,0.00,,SKC,0.00,VWS V14.01,2013-01-17 02:52:00,
2013-01-16 20:55:00,15.4,7.4,29.96,WNW,287,6.0,6.0,70,0.00,,SKC,0.00,VWS V14.01,2013-01-17 02:55:00,
2013-01-16 20:57:00,17.4,9.0,29.93,WNW,296,3.0,7.0,69,0.00,,SKC,0.00,VWS V14.01,2013-01-17 02:57:00,
2013-01-16 21:00:00,15.2,7.2,29.96,WNW,287,3.0,8.0,70,0.00,,SKC,0.00,VWS V14.01,2013-01-17 03:00:00,
2013-01-16 21:02:00,17.3,8.9,29.95,WNW,287,4.0,6.0,69,0.00,,SKC,0.00,VWS V14.01,2013-01-17 03:02:00,
2013-01-16 21:05:00,15.0,7.3,29.96,West,271,1.0,6.0,71,0.00,,SKC,0.00,VWS V14.01,2013-01-17 03:05:00,
2013-01-16 21:07:00,17.3,8.9,29.95,SW,217,3.0,8.0,69,0.00,,SKC,0.00,VWS V14.01,2013-01-17 03:07:00,
2013-01-16 21:10:00,14.7,6.7,29.96,West,275,3.0,7.0,70,0.00,,SKC,0.00,VWS V14.01,2013-01-17 03:10:00,
2013-01-16 21:12:00,17.2,8.8,29.95,NNW,340,2.0,7.0,69,0.00,,SKC,0.00,VWS V14.01,2013-01-17 03:12:00,
2013-01-16 21:15:00,14.4,6.7,29.96,WNW,290,3.0,6.0,71,0.00,,SKC,0.00,VWS V14.01,2013-01-17 03:15:00,
2013-01-16 21:17:00,17.1,8.7,29.96,SW,231,2.0,7.0,69,0.00,,SKC,0.00,VWS V14.01,2013-01-17 03:17:00,
2013-01-16 21:20:00,14.1,6.8,29.96,WSW,257,1.0,6.0,72,0.00,,SKC,0.00,VWS V14.01,2013-01-17 03:20:00,
2013-01-16 21:22:00,16.9,8.8,29.96,West,265,3.0,4.0,70,0.00,,SKC,0.00,VWS V14.01,2013-01-17 03:22:00,
2013-01-16 21:25:00,13.9,6.6,29.96,SW,219,2.0,5.0,72,0.00,,SKC,0.00,VWS V14.01,2013-01-17 03:25:00,
2013-01-16 21:27:00,16.7,8.6,29.96,WNW,288,4.0,6.0,70,0.00,,SKC,0.00,VWS V14.01,2013-01-17 03:27:00,
2013-01-16 21:30:00,13.8,6.5,29.98,WSW,254,2.0,6.0,72,0.00,,SKC,0.00,VWS V14.01,2013-01-17 03:30:00,
2013-01-16 21:32:00,16.5,8.1,29.96,West,275,4.0,7.0,69,0.00,,SKC,0.00,VWS V14.01,2013-01-17 03:32:00,
2013-01-16 21:35:00,13.7,6.4,29.98,West,276,2.0,5.0,72,0.00,,SKC,0.00,VWS V14.01,2013-01-17 03:35:00,
2013-01-16 21:37:00,16.3,7.9,29.96,WNW,286,4.0,9.0,69,0.00,,SKC,0.00,VWS V14.01,2013-01-17 03:37:00,
2013-01-16 21:40:00,13.4,6.4,29.98,WNW,284,0.0,3.0,73,0.00,,SKC,0.00,VWS V14.01,2013-01-17 03:40:00,
2013-01-16 21:42:00,16.0,7.6,29.96,West,272,2.0,9.0,69,0.00,,SKC,0.00,VWS V14.01,2013-01-17 03:42:00,
2013-01-16 21:45:00,13.2,6.5,29.98,WNW,300,1.0,1.0,74,0.00,,SKC,0.00,VWS V14.01,2013-01-17 03:45:00,
2013-01-16 21:47:00,15.8,7.8,29.96,WNW,292,3.0,5.0,70,0.00,,SKC,0.00,VWS V14.01,2013-01-17 03:47:00,
2013-01-16 21:50:00,13.0,6.3,29.98,WNW,286,1.0,4.0,74,0.00,,SKC,0.00,VWS V14.01,2013-01-17 03:50:00,
2013-01-16 21:52:00,15.6,7.6,29.96,WNW,295,3.0,9.0,70,0.00,,SKC,0.00,VWS V14.01,2013-01-17 03:52:00,
2013-01-16 21:55:00,12.8,6.1,29.98,WSW,257,1.0,2.0,74,0.00,,SKC,0.00,VWS V14.01,2013-01-17 03:55:00,
2013-01-16 21:57:00,15.4,7.4,29.96,WNW,287,6.0,6.0,70,0.00,,SKC,0.00,VWS V14.01,2013-01-17 03:57:00,
2013-01-16 22:00:00,12.7,6.0,29.98,West,264,1.0,4.0,74,0.00,,SKC,0.00,VWS V14.01,2013-01-17 04:00:00,
2013-01-16 22:02:00,15.2,7.2,29.96,WNW,287,3.0,8.0,70,0.00,,SKC,0.00,VWS V14.01,2013-01-17 04:02:00,
2013-01-16 22:05:00,12.6,5.9,29.98,West,276,2.0,4.0,74,0.00,,SKC,0.00,VWS V14.01,2013-01-17 04:05:00,
2013-01-16 22:07:00,15.0,7.3,29.96,West,271,1.0,6.0,71,0.00,,SKC,0.00,VWS V14.01,2013-01-17 04:07:00,
2013-01-16 22:10:00,12.5,6.1,29.98,WNW,286,2.0,3.0,75,0.00,,SKC,0.00,VWS V14.01,2013-01-17 04:10:00,
2013-01-16 22:12:00,14.7,6.7,29.96,West,275,3.0,7.0,70,0.00,,SKC,0.00,VWS V14.01,2013-01-17 04:12:00,
2013-01-16 22:15:00,12.3,5.9,30.00,West,265,2.0,4.0,75,0.00,,SKC,0.00,VWS V14.01,2013-01-17 04:15:00,
2013-01-16 22:17:00,14.4,6.7,29.96,WNW,290,3.0,6.0,71,0.00,,SKC,0.00,VWS V14.01,2013-01-17 04:17:00,
2013-01-16 22:20:00,12.2,5.8,30.00,West,279,2.0,3.0,75,0.00,,SKC,0.00,VWS V14.01,2013-01-17 04:20:00,
2013-01-16 22:22:00,14.1,6.8,29.96,WSW,257,1.0,6.0,72,0.00,,SKC,0.00,VWS V14.01,2013-01-17 04:22:00,
2013-01-16 22:25:00,12.2,5.8,30.00,WNW,292,5.0,5.0,75,0.00,,SKC,0.00,VWS V14.01,2013-01-17 04:25:00,
2013-01-16 22:27:00,13.9,6.6,29.96,SW,219,2.0,5.0,72,0.00,,SKC,0.00,VWS V14.01,2013-01-17 04:27:00,
2013-01-16 22:30:00,12.1,5.4,30.00,WNW,287,1.0,5.0,74,0.00,,SKC,0.00,VWS V14.01,2013-01-17 04:30:00,
2013-01-16 22:32:00,13.8,6.5,29.98,WSW,254,2.0,6.0,72,0.00,,SKC,0.00,VWS V14.01,2013-01-17 04:32:00,
2013-01-16 22:35:00,12.1,5.4,30.00,West,264,2.0,3.0,74,0.00,,SKC,0.00,VWS V14.01,2013-01-17 04:35:00,
2013-01-16 22:37:00,13.7,6.4,29.98,West,276,2.0,5.0,72,0.00,,SKC,0.00,VWS V14.01,2013-01-17 04:37:00,
2013-01-16 22:40:00,12.0,5.3,30.00,West,279,2.0,4.0,74,0.00,,SKC,0.00,VWS V14.01,2013-01-17 04:40:00,
2013-01-16 22:42:00,13.4,6.4,29.98,WNW,284,0.0,3.0,73,0.00,,SKC,0.00,VWS V14.01,2013-01-17 04:42:00,
2013-01-16 22:45:00,12.0,5.3,30.01,West,272,1.0,5.0,74,0.00,,SKC,0.00,VWS V14.01,2013-01-17 04:45:00,
2013-01-16 22:47:00,13.2,6.5,29.98,WNW,300,1.0,1.0,74,0.00,,SKC,0.00,VWS V14.01,2013-01-17 04:47:00,
2013-01-16 22:50:00,11.9,4.9,30.01,WNW,289,2.0,6.0,73,0.00,,SKC,0.00,VWS V14.01,2013-01-17 04:50:00,
2013-01-16 22:52:00,13.0,6.3,29.98,WNW,286,1.0,4.0,74,0.00,,SKC,0.00,VWS V14.01,2013-01-17 04:52:00,
2013-01-16 22:55:00,11.9,5.2,30.01,West,275,2.0,5.0,74,0.00,,SKC,0.00,VWS V14.01,2013-01-17 04:55:00,
2013-01-16 22:57:00,12.8,6.1,29.98,WSW,257,1.0,2.0,74,0.00,,SKC,0.00,VWS V14.01,2013-01-17 04:57:00,
2013-01-16 23:00:00,12.7,6.3,29.98,West,280,2.0,4.0,75,0.00,,SKC,0.00,VWS V14.01,2013-01-17 05:00:00,
2013-01-16 23:03:00,12.7,6.0,29.98,WNW,282,2.0,2.0,74,0.00,,SKC,0.00,VWS V14.01,2013-01-17 05:03:00,
2013-01-16 23:05:00,11.8,5.1,30.01,West,266,1.0,6.0,74,0.00,,SKC,0.00,VWS V14.01,2013-01-17 05:05:00,
2013-01-16 23:08:00,12.5,5.8,29.98,West,267,0.0,2.0,74,0.00,,SKC,0.00,VWS V14.01,2013-01-17 05:08:00,
2013-01-16 23:10:00,11.8,4.8,30.01,West,261,2.0,6.0,73,0.00,,SKC,0.00,VWS V14.01,2013-01-17 05:10:00,
2013-01-16 23:13:00,12.4,6.0,29.98,WSW,256,1.0,2.0,75,0.00,,SKC,0.00,VWS V14.01,2013-01-17 05:13:00,
2013-01-16 23:15:00,11.8,4.8,30.03,WSW,250,4.0,5.0,73,0.00,,SKC,0.00,VWS V14.01,2013-01-17 05:15:00,
2013-01-16 23:18:00,12.3,5.9,30.00,West,265,2.0,3.0,75,0.00,,SKC,0.00,VWS V14.01,2013-01-17 05:18:00,
2013-01-16 23:20:00,11.7,5.0,30.03,West,276,1.0,4.0,74,0.00,,SKC,0.00,VWS V14.01,2013-01-17 05:20:00,
2013-01-16 23:23:00,12.2,5.8,30.00,West,280,2.0,2.0,75,0.00,,SKC,0.00,VWS V14.01,2013-01-17 05:23:00,
2013-01-16 23:28:00,12.1,5.7,30.00,West,275,1.0,5.0,75,0.00,,SKC,0.00,VWS V14.01,2013-01-17 05:28:00,
2013-01-16 23:33:00,12.1,5.4,30.00,West,261,2.0,3.0,74,0.00,,SKC,0.00,VWS V14.01,2013-01-17 05:33:00,
2013-01-16 23:35:00,11.5,4.8,30.04,WNW,284,4.0,4.0,74,0.00,,SKC,0.00,VWS V14.01,2013-01-17 05:35:00,
2013-01-16 23:38:00,12.0,5.3,30.00,West,263,2.0,2.0,74,0.00,,SKC,0.00,VWS V14.01,2013-01-17 05:38:00,
2013-01-16 23:40:00,11.6,5.2,30.04,West,280,5.0,5.0,75,0.00,,SKC,0.00,VWS V14.01,2013-01-17 05:40:00,
2013-01-16 23:43:00,12.0,5.3,30.00,West,279,2.0,3.0,74,0.00,,SKC,0.00,VWS V14.01,2013-01-17 05:43:00,
2013-01-16 23:45:00,11.5,5.1,30.05,WSW,248,2.0,5.0,75,0.00,,SKC,0.00,VWS V14.01,2013-01-17 05:45:00,
2013-01-16 23:48:00,12.0,5.3,30.01,WSW,257,1.0,2.0,74,0.00,,SKC,0.00,VWS V14.01,2013-01-17 05:48:00,
2013-01-16 23:50:00,11.5,4.8,30.05,West,271,1.0,6.0,74,0.00,,SKC,0.00,VWS V14.01,2013-01-17 05:50:00,
2013-01-16 23:53:00,11.9,5.2,30.01,West,272,2.0,4.0,74,0.00,,SKC,0.00,VWS V14.01,2013-01-17 05:53:00,
2013-01-16 23:55:00,11.4,5.0,30.05,West,272,2.0,8.0,75,0.00,,SKC,0.00,VWS V14.01,2013-01-17 05:55:00,
2013-01-16 23:58:00,11.9,4.9,30.01,West,259,2.0,3.0,73,0.00,,SKC,0.00,VWS V14.01,2013-01-17 05:58:00,